This is the latest recevied weather packets stored in our database for station/object K3BAY-1. If no packets are shown the sender has not sent any weather packets the latest 10 day(s).
| Time | Temp. | Humidity | Pressure | Rain* | Wind** | Luminosity | Snow |
|---|---|---|---|---|---|---|---|
| 1777233298 | 12.22° C | 77% | 1018 hPa | 0 mm | - | 239 W/m² | - |
| 1777232994 | 12.22° C | 78% | 1018.3 hPa | 0 mm | - | 253 W/m² | - |
| 1777232691 | 12.22° C | 79% | 1018 hPa | 0 mm | - | 266 W/m² | - |
| 1777232390 | 12.22° C | 78% | 1018.3 hPa | 0 mm | - | 285 W/m² | - |
| 1777232085 | 12.22° C | 77% | 1018 hPa | 0 mm | - | 248 W/m² | - |
| 1777231783 | 12.22° C | 79% | 1018.3 hPa | 0 mm | - | 244 W/m² | - |
| 1777231479 | 11.67° C | 79% | 1018.3 hPa | 0 mm | - | 246 W/m² | - |
| 1777231176 | 11.67° C | 79% | 1018.3 hPa | 0 mm | - | 246 W/m² | - |
| 1777230871 | 12.22° C | 79% | 1018.3 hPa | 0 mm | - | 192 W/m² | - |
| 1777230567 | 11.67° C | 79% | 1018 hPa | 0 mm | - | 334 W/m² | - |
| 1777230263 | 11.67° C | 80% | 1017.6 hPa | 0 mm | - | 316 W/m² | - |
| 1777229960 | 11.67° C | 80% | 1017.6 hPa | 0 mm | - | 304 W/m² | - |
| 1777229656 | 11.67° C | 80% | 1017.3 hPa | 0 mm | - | 244 W/m² | - |
| 1777229353 | 11.11° C | 81% | 1017.3 hPa | 0 mm | - | 269 W/m² | - |
| 1777229051 | 11.11° C | 82% | 1017.3 hPa | 0 mm | - | 223 W/m² | - |
| 1777228748 | 10.56° C | 82% | 1017.6 hPa | 0 mm | - | 196 W/m² | - |
| 1777228443 | 10.56° C | 82% | 1017.3 hPa | 0 mm | - | 124 W/m² | - |
| 1777228139 | 10.56° C | 82% | 1017.6 hPa | 0 mm | - | 99 W/m² | - |
| 1777227837 | 10.56° C | 82% | 1017.6 hPa | 0 mm | - | 95 W/m² | - |
| 1777227535 | 10.56° C | 82% | 1017.6 hPa | 0 mm | - | 81 W/m² | - |
| 1777227230 | 10.56° C | 82% | 1017.6 hPa | 0 mm | - | 81 W/m² | - |
| 1777226928 | 10.56° C | 82% | 1018 hPa | 0 mm | - | 118 W/m² | - |
| 1777226625 | 10.56° C | 82% | 1018 hPa | 0 mm | - | 158 W/m² | - |
| 1777226321 | 10.56° C | 82% | 1018 hPa | 0 mm | - | 158 W/m² | - |
| 1777226018 | 10.56° C | 82% | 1018 hPa | 0 mm | - | 221 W/m² | - |
* Rain latest hour (hover to see other rain measurements)
** Current wind speed in m/s (hover to see current wind gust speed)